STARLINK-4710, 53799

Orbit data source: Space-Track

STARLINK-4710, 53799 is a payload satellite owned by SpaceX/Seattle (US) in LEO that was launched on Sun, 11 Sep 2022 UTC via an FALCON 9 launch vehicle from the Air Force Eastern Test Range (AFETR). Payload-class satellites include a variety of spacecraft equipped with specific instruments for various scientific and technological missions. These include communications satellites like Starlink; space stations such as the ISS; scientific satellites like the Hubble; Earth observation satellites from companies like Planet Labs, Umbra, and HawkEye 360; GPS; miniature CubeSats for education and research; and military/defense satellites.

Loading next visibility...
Identifier
53799, 2022-111AC
Orbit
LEO
Last TLE update
19 hours ago
Origin
Manufacturer
SpaceX/Seattle
Mission
Operational Commercial Communications
Bus & Motor
STARLINK, Unknown motor
Mass
305 kg wet, ~290 kg dry
Launch date (UTC)
2022-09-11 (3 years ago)
Launch vehicle
FALCON 9
Launch site
Air Force Eastern Test Range (AFETR)
Object type
Payload
Rocket body
Debris
Shape & HBR
Box + 1 Pan, 8.86 m
Radar Cross Section
13.562 m², Large (>1 m²)

Expand to show TLE details & history

TLE from 19 hours ago
0 STARLINK-4710
1 53799U 22111AC  25181.63491967  .00001244  00000-0  96199-4 0  9991
2 53799  53.2181 315.7082 0001214  85.6372 274.4758 15.08843172155760
Epoch: 2025-06-30T15:14Z
TLE epoch observation values (Epoch: 2025-06-30T15:14:17.059Z)
Latitude
-0.00009°
Longitude
168.19515°
Altitude
540.566 km
Speed
7.593 km/s
True Right ascension
21h 02m 49s
True Declination
0° 00' 00"
Sunlit
Object was in full shadow at epoch
Visualization orbit readout
Latitude
-47.62896°
Longitude
110.08642°
Altitude
556.801 km
Speed
7.583 km/s
Apparent Right ascension
13h 17m 09s
Apparent Declination
-59° 55' 39"
Sunlit
Object is in full shadow
Visualization observer readout
Local Sidereal Time
21:39:32
Azimuth
220.529° SW
Elevation
-51.168°
Doppler factor
1
Orbital elements
Apogee altitude
540.818 km
Perigee altitude
539.139 km
Semi-major axis
6,918.116 km
Eccentricity
0.00012
Inclination
53.2181°
RAAN
315.7082°
Arg. of periapsis
85.6372°
True anomaly
Unknown
Mean anomaly
274.4758°
Eccentric anomaly
Unknown
Mean motion
3.77191 °/min
Orbital period
95.44 mins
BSTAR
0.000096199
Loading maneuver chart data...
Loading SW <> Apogee altitude chart data...
Loading historical data...
Loading historical data...
Loading historical data...
Loading historical data...
Loading historical data...
Loading historical data...
Loading historical data...

STARLINK-4710 Visibility forecast

Observer location: undefined°, undefined°

Span
Click to sort rows by Start time (UTC) header in descending order
Start Az.
Max El. time (UTC)
Max El. Az.
Max El.
End time (UTC)
End Az.
5 mins2025-07-01 10:28:09.264Z167.247° S2025-07-01 10:30:09.264Z132.656° SE18.834°2025-07-01 10:33:09.264Z82.25° E
6 mins2025-07-01 12:07:09.264Z253.752° W2025-07-01 12:09:09.264Z306.744° NW38.979°2025-07-01 12:13:09.264Z42.158° NE
4 mins2025-07-01 17:09:09.264Z351.7° N2025-07-01 17:11:09.264Z38.784° NE23.194°2025-07-01 17:13:09.264Z75.355° E
6 mins2025-07-01 18:48:09.264Z293.923° NW2025-07-01 18:50:09.264Z230.587° WSW40.144°2025-07-01 18:54:09.264Z145.696° SSE
|